Location: Warren
(41.8440°N, 79.1450°W)
Time: 06:00:59
(UTC-04:00)

OTV 5 (USA 277) - Visible Passes

Search period start: 19 April 2018 00:00
Search period end: 29 April 2018 00:00
Orbit: 350 x 361 km, 54.5° (Epoch: 17 April)

Date Brightness Start Highest point End Pass type
(mag) Time Alt. Az. Time Alt. Az. Time Alt. Az.
19 Apr ? 20:35:42 10° SW 20:38:38 62° SE 20:41:36 10° NE visible
19 Apr ? 22:11:57 10° WNW 22:14:04 17° NNW 22:16:10 10° NNE visible
20 Apr ? 21:03:27 10° WSW 21:06:15 36° NW 21:09:04 10° NE visible
20 Apr ? 22:41:46 10° NNW 22:42:07 10° NNW 22:42:28 10° N visible
21 Apr ? 21:32:07 10° WNW 21:34:07 16° NNW 21:36:07 10° NNE visible
23 Apr ? 20:52:18 10° WNW 20:54:11 15° NNW 20:56:03 10° NNE visible
27 Apr ? 22:45:16 10° NNW 22:46:32 13° NNE 22:46:32 13° NNE visible
28 Apr ? 23:12:12 10° NNW 23:12:58 15° NNW 23:12:58 15° NNW visible
